Change the Weather History Date:

Tuesday, February 4, 2014

  Actual Average Record
Temperature  
Mean Temperature 19 °F 21 °F  
Max Temperature 30 °F 29 °F 46 °F (2006)
Min Temperature 8 °F 12 °F 0 °F (2015)
Degree Days  
Heating Degree Days 46 44  
Month to date heating degree days 179  
Since 1 July heating degree days 4350  
Cooling Degree Days 0 0  
Month to date cooling degree days 0  
Year to date cooling degree days 0  
Moisture  
Dew Point 10 °F    
Average Humidity 66    
Maximum Humidity 92    
Minimum Humidity 43    
Precipitation  
Precipitation 0.00 in 0.08 in 0.41 in (2004)
Month to date precipitation 0.33  
Year to date precipitation 2.94  
Sea Level Pressure  
Sea Level Pressure 30.38 in    
Wind  
Wind Speed 3 mph (NNW)    
Max Wind Speed 8 mph    
Max Gust Speed -    
Visibility 10 miles    
Events      
T = Trace of Precipitation, MM = Missing Value Source: NWS Daily Summary

Daily Weather History Graph

Daily Weather History Graph

Search for Another Location

Airport or City:

Trip Planner

Search our weather history database for the weather conditions in past years. The results will help you decide how hot, cold, wet, or windy it might be!

Date:

Astronomy

Feb. 04, 2014 Rise Set
Actual Time 6:53 AM EST 4:52 PM EST
Civil Twilight 6:23 AM EST 5:23 PM EST
Nautical Twilight 5:48 AM EST 5:58 PM EST
Astronomical Twilight 5:14 AM EST 6:32 PM EST
Moon 9:15 AM EST (2/4) 10:58 PM EST (2/4)
Length of Visible Light 11h 00m
Length of Day
9h 59m
Waxing Crescent, 29% of the Moon is Illuminated
Feb 4
Waxing Crescent
Feb 6
First Quarter
Feb 14
Full
Feb 22
Last Quarter
Mar 1
New

Hourly Weather History & Observations

Time (EST) Temp. Windchill Dew Point Humidity Pressure Visibility Wind Dir Wind Speed Gust Speed Precip Events Conditions
12:53 AM 14.0 °F 8.2 °F 10.0 °F 84% 30.30 in 10.0 mi NW 3.5 mph - N/A   Clear
1:53 AM 15.1 °F 9.4 °F 10.0 °F 80% 30.31 in 10.0 mi WNW 3.5 mph - N/A   Clear
2:53 AM 12.9 °F 5.2 °F 9.0 °F 84% 30.34 in 10.0 mi NW 4.6 mph - N/A   Clear
3:53 AM 12.0 °F 5.9 °F 8.1 °F 84% 30.34 in 10.0 mi NNW 3.5 mph - N/A   Clear
4:53 AM 12.0 °F - 9.0 °F 88% 30.35 in 10.0 mi Calm Calm - N/A   Clear
5:53 AM 9.0 °F -0.9 °F 7.0 °F 92% 30.38 in 10.0 mi NNW 5.8 mph - N/A   Clear
6:53 AM 8.1 °F -0.5 °F 6.1 °F 92% 30.40 in 10.0 mi North 4.6 mph - N/A   Clear
7:53 AM 10.9 °F 4.7 °F 8.1 °F 88% 30.42 in 10.0 mi NNW 3.5 mph - N/A   Clear
8:53 AM 15.1 °F - 10.0 °F 80% 30.43 in 10.0 mi Calm Calm - N/A   Clear
9:53 AM 19.0 °F - 10.9 °F 71% 30.44 in 10.0 mi Calm Calm - N/A   Clear
10:53 AM 24.1 °F - 10.9 °F 57% 30.44 in 10.0 mi Calm Calm - N/A   Clear
11:53 AM 26.1 °F 18.4 °F 10.0 °F 51% 30.39 in 10.0 mi NNW 6.9 mph - N/A   Clear
12:53 PM 28.0 °F - 10.0 °F 47% 30.37 in 10.0 mi Calm Calm - N/A   Clear
1:53 PM 28.9 °F 21.1 °F 9.0 °F 43% 30.37 in 10.0 mi West 8.1 mph - N/A   Clear
2:53 PM 30.0 °F 26.5 °F 10.0 °F 43% 30.37 in 10.0 mi Variable 3.5 mph - N/A   Clear
3:53 PM 30.0 °F - 10.0 °F 43% 30.36 in 10.0 mi Calm Calm - N/A   Clear
4:53 PM 28.9 °F - 10.0 °F 45% 30.36 in 10.0 mi Calm Calm - N/A   Clear
5:53 PM 28.0 °F - 10.9 °F 49% 30.39 in 10.0 mi Calm Calm - N/A   Clear
6:53 PM 26.1 °F - 10.9 °F 53% 30.40 in 10.0 mi Calm Calm - N/A   Clear
7:53 PM 24.1 °F 19.7 °F 10.0 °F 55% 30.40 in 10.0 mi NNW 3.5 mph - N/A   Clear
8:53 PM 24.1 °F - 10.0 °F 55% 30.40 in 10.0 mi Calm Calm - N/A   Clear
9:53 PM 23.0 °F 18.4 °F 10.9 °F 60% 30.41 in 10.0 mi NNW 3.5 mph - N/A   Clear
10:53 PM 21.0 °F - 12.9 °F 71% 30.40 in 10.0 mi Calm Calm - N/A   Clear
11:53 PM 21.9 °F 17.2 °F 12.0 °F 66% 30.40 in 10.0 mi NNE 3.5 mph - N/A   Clear